2023/09/29 00:00:00, 6.2,19.1
2023/09/29 00:10:00, 6.0,19.1
2023/09/29 00:20:00, 5.8,19.1
2023/09/29 00:30:00, 6.0,19.1
2023/09/29 00:40:00, 6.0,19.0
2023/09/29 00:50:00, 6.2,18.7
2023/09/29 01:00:00, 6.3,19.0
2023/09/29 01:10:00, 6.4,19.0
2023/09/29 01:20:00, 6.7,18.9
2023/09/29 01:30:00, 7.0,18.5
2023/09/29 01:40:00, 7.2,18.5
2023/09/29 01:50:00, 7.3,18.4
2023/09/29 02:00:00, 7.6,18.9
2023/09/29 02:10:00, 7.8,18.5
2023/09/29 02:20:00, 7.7,18.4
2023/09/29 02:30:00, 7.7,18.6
2023/09/29 02:40:00, 7.6,18.2
2023/09/29 02:50:00, 7.6,18.3
2023/09/29 03:00:00, 7.7,18.3
2023/09/29 03:10:00, 7.7,18.2
2023/09/29 03:20:00, 7.6,18.2
2023/09/29 03:30:00, 7.6,18.1
2023/09/29 03:40:00, 7.6,18.1
2023/09/29 03:50:00, 7.4,18.3
2023/09/29 04:00:00, 7.3,18.1
2023/09/29 04:10:00, 7.3,18.0
2023/09/29 04:20:00, 7.2,18.0
2023/09/29 04:30:00, 7.1,17.9
2023/09/29 04:40:00, 6.9,18.1
2023/09/29 04:50:00, 6.7,18.1
2023/09/29 05:00:00, 6.6,17.8
2023/09/29 05:10:00, 6.5,17.8
2023/09/29 05:20:00, 6.5,17.6
2023/09/29 05:30:00, 6.5,17.3
2023/09/29 05:40:00, 6.4,17.3
2023/09/29 05:50:00, 6.4,17.2
2023/09/29 06:00:00, 6.4,17.4
2023/09/29 06:10:00, 6.5,17.4
2023/09/29 06:20:00, 6.5,17.3
2023/09/29 06:30:00, 6.5,17.4
2023/09/29 06:40:00, 6.4,17.6
2023/09/29 06:50:00, 6.4,18.3
2023/09/29 07:00:00, 6.5,19.2
2023/09/29 07:10:00, 6.5,20.5
2023/09/29 07:20:00, 6.5,21.3
2023/09/29 07:30:00, 6.3,24.0
2023/09/29 07:40:00, 6.0,24.7
2023/09/29 07:50:00, 6.2,26.1
2023/09/29 08:00:00, 6.3,27.2
2023/09/29 08:10:00, 6.3,27.2
2023/09/29 08:20:00, 6.2,29.0
2023/09/29 08:30:00, 6.1,29.6
2023/09/29 08:40:00, 6.2,29.9
2023/09/29 08:50:00, 6.3,30.0
2023/09/29 09:00:00, 6.4,30.6
2023/09/29 09:10:00, 6.7,30.4
2023/09/29 09:20:00, 6.7,30.8
2023/09/29 09:30:00, 6.7,30.1
2023/09/29 09:40:00, 6.8,29.3
2023/09/29 09:50:00, 6.7,29.0
2023/09/29 10:00:00, 6.8,29.5
2023/09/29 10:10:00, 6.8,28.8
2023/09/29 10:20:00, 6.7,28.8
2023/09/29 10:30:00, 6.3,28.7
2023/09/29 10:40:00, 6.9,28.6
2023/09/29 10:50:00, 9.0,28.5
2023/09/29 11:00:00, 8.2,28.7
2023/09/29 11:10:00, 8.7,28.7
2023/09/29 11:20:00, 9.4,29.3
2023/09/29 11:30:00, 9.3,29.0
2023/09/29 11:40:00, 9.2,28.7
2023/09/29 11:50:00, 9.2,29.1
2023/09/29 12:00:00, 8.8,28.7
2023/09/29 12:10:00, 8.5,28.7
2023/09/29 12:20:00, 8.5,29.8
2023/09/29 12:30:00, 8.3,29.1
2023/09/29 12:40:00, 8.1,30.0
2023/09/29 12:50:00, 8.0,29.7
2023/09/29 13:00:00, 7.9,29.8
2023/09/29 13:10:00, 7.7,30.1
2023/09/29 13:20:00, 7.7,30.2
2023/09/29 13:30:00, 7.7,30.2
2023/09/29 13:40:00, 7.7,30.4
2023/09/29 13:50:00, 7.8,30.1
2023/09/29 14:00:00, 7.7,30.0
2023/09/29 14:10:00, 7.6,30.0
2023/09/29 14:20:00, 7.8,30.4
2023/09/29 14:30:00, 7.9,30.4
2023/09/29 14:40:00, 7.7,30.2
2023/09/29 14:50:00, 7.4,30.7
2023/09/29 15:00:00, 7.5,30.6
2023/09/29 15:10:00, 7.6,30.8
2023/09/29 15:20:00, 7.7,30.7
2023/09/29 15:30:00, 7.7,30.9
2023/09/29 15:40:00, 7.8,30.5
2023/09/29 15:50:00, 7.7,31.2
2023/09/29 16:00:00, 7.7,32.3
2023/09/29 16:10:00, 7.7,33.6
2023/09/29 16:20:00, 7.7,34.1
2023/09/29 16:30:00, 7.8,34.0
2023/09/29 16:40:00, 7.8,33.5
2023/09/29 16:50:00, 7.8,32.9
2023/09/29 17:00:00, 7.8,31.2
2023/09/29 17:10:00, 7.7,30.5
2023/09/29 17:20:00, 7.5,27.8
2023/09/29 17:30:00, 7.3,23.9
2023/09/29 17:40:00, 7.3,22.5
2023/09/29 17:50:00, 7.3,21.9
2023/09/29 18:00:00, 7.0,21.2
2023/09/29 18:10:00, 7.1,20.8
2023/09/29 18:20:00, 7.0,20.4
2023/09/29 18:30:00, 6.9,20.2
2023/09/29 18:40:00, 6.8,20.0
2023/09/29 18:50:00, 6.8,19.8
2023/09/29 19:00:00, 6.8,19.5
2023/09/29 19:10:00, 6.8,19.5
2023/09/29 19:20:00, 6.8,19.2
2023/09/29 19:30:00, 6.8,19.3
2023/09/29 19:40:00, 6.7,19.5
2023/09/29 19:50:00, 6.8,19.2
2023/09/29 20:00:00, 6.9,19.0
2023/09/29 20:10:00, 7.0,18.6
2023/09/29 20:20:00, 6.9,18.4
2023/09/29 20:30:00, 7.0,18.6
2023/09/29 20:40:00, 7.0,18.3
2023/09/29 20:50:00, 7.1,17.8
2023/09/29 21:00:00, 7.2,17.5
2023/09/29 21:10:00, 7.2,17.3
2023/09/29 21:20:00, 7.3,17.6
2023/09/29 21:30:00, 7.3,17.5
2023/09/29 21:40:00, 7.3,17.3
2023/09/29 21:50:00, 7.3,17.1
2023/09/29 22:00:00, 7.3,16.8
2023/09/29 22:10:00, 7.4,16.8
2023/09/29 22:20:00, 7.5,16.5
2023/09/29 22:30:00, 7.5,16.6
2023/09/29 22:40:00, 7.6,16.7
2023/09/29 22:50:00, 7.6,16.4
2023/09/29 23:00:00, 7.6,16.5
2023/09/29 23:10:00, 7.5,16.4
2023/09/29 23:20:00, 7.4,16.4
2023/09/29 23:30:00, 3.4,16.4
2023/09/29 23:40:00, 0.3,16.2
2023/09/29 23:50:00, 0.3,16.5
